Regional Weather Roundup
Issued by NWS Sioux Falls, SD

Home | Current Version | Previous Version | Text Only | Print | Product List | Glossary Off
Versions: 1 2 3 4 5 6 7 8 9 10 11 12 13 14 15 16 17 18 19 20 21 22 23 24 25 26 27 28 29 30 31 32 33 34 35 36 37 38 39 40 41 42 43 44 45 46 47 48 49 50

784
ASUS43 KFSD 240302
RWRFSD

WEATHER ROUNDUP FOR SE SOUTH DAKOTA/SW MINNESOTA/NW IOWA
NATIONAL WEATHER SERVICE SIOUX FALLS SD
1000 PM CDT MON MAY 23 2016

NOTE: "FAIR" INDICATES FEW OR NO CLOUDS BELOW 12,000 FEET WITH NO
SIGNIFICANT WEATHER AND OR OBSTRUCTIONS TO VISIBILITY.


SDZ038>040-050-052>070-240400-
SOUTHEAST SOUTH DAKOTA

CITY           SKY/WX    TMP DP  RH WIND       PRES   REMARKS
BROOKINGS      MOCLDY    65  57  75 S7        29.76R
CHAMBERLAIN    NOT AVBL
HURON          CLEAR     64  55  72 SE6       29.71R
MADISON        FAIR      63  63 100 SE7       29.76S
MITCHELL       CLOUDY    67  60  78 S6        29.73R
SIOUX FALLS    CLOUDY    65  61  87 S8        29.77R
WINNER         FAIR      64  49  57 SW5       29.74R
YANKTON        CLOUDY    68  63  83 SE10      29.75R
$$

MNZ071-072-080-081-089-090-097-098-240400-
SOUTHWEST MINNESOTA

CITY           SKY/WX    TMP DP  RH WIND       PRES   REMARKS
FAIRMONT       CLOUDY    64  61  88 S7        29.82R
JACKSON        LGT RAIN  64  61  88 S6        29.80F
LUVERNE        CLOUDY    61  57  88 S6        29.78S
MARSHALL       CLOUDY    66  61  84 S10       29.75R
MONTEVIDEO     CLOUDY    72  61  68 SW7       29.75R
PIPESTONE      CLOUDY    64  61  88 S5        29.78R
REDWOOD FALLS  CLOUDY    67  60  78 SW20      29.75R
TRACY          CLOUDY    66  61  82 SW13      29.76S
WINDOM         CLOUDY    64  61  88 S9        29.77F
WORTHINGTON    CLOUDY    63  61  93 S13       29.79S
$$

IAZ001>003-012>014-020>022-031-032-NEZ013-014-SDZ071-240400-
NORTHWEST IOWA

CITY           SKY/WX    TMP DP  RH WIND       PRES   REMARKS
DENISON        CLOUDY    64  61  88 CALM      29.80R
ESTHERVILLE    LGT RAIN  65  63  93 W7        29.82R
SIOUX CITY       N/A    N/A N/A N/A MISG      29.78R
SPENCER        CLOUDY    65  60  84 S8        29.79F
STORM LAKE     CLOUDY    64  63  94 SE8       29.82R
$$

ABBREVIATIONS USED IN REMARKS
   TC - TEMPERATURE IN CELSIUS
  WCI - WIND CHILL INDEX
   HX - HEAT INDEX
  VSB - VISIBILITY





USA.gov is the U.S. government's official web portal to all federal, state and local government web resources and services.